Date,TemperatureHighF,TemperatureAvgF,TemperatureLowF,DewpointHighF,DewpointAvgF,DewpointLowF,HumidityHigh,HumidityAvg,HumidityLow,PressureMaxIn,PressureMinIn,WindSpeedMaxMPH,WindSpeedAvgMPH,GustSpeedMaxMPH,PrecipitationSumIn
2013-1-1,25.7,15.4,3.7,-0.8,-5.3,-7.6,80,40,27,30.26,30.17,13,6,19,0.00
2013-1-2,28.4,6.6,-0.9,1.1,-7.6,-12.2,67,53,27,30.39,30.25,9,4,14,0.00
2013-1-3,40.8,13.2,-6.2,-2.2,-11.0,-20.1,69,41,10,30.40,30.34,9,3,14,0.00
2013-1-4,49.1,23.5,8.4,10.2,4.3,-2.4,71,49,17,30.39,30.27,8,3,13,0.00
2013-1-5,44.1,24.6,11.8,6.0,-1.8,-6.5,53,34,12,30.48,30.29,10,4,17,0.00
2013-1-6,49.3,27.2,9.7,6.0,-5.0,-14.5,46,27,10,30.48,30.27,9,4,13,0.00
2013-1-7,52.2,28.4,15.4,3.1,-2.0,-10.3,53,31,10,30.30,30.17,8,3,12,0.00
2013-1-8,39.6,30.6,21.9,13.9,7.2,-13.2,58,39,14,30.46,30.15,11,4,18,0.00
2013-1-9,51.3,31.2,18.9,10.2,7.8,1.7,61,39,13,30.53,30.33,8,3,11,0.00
2013-1-10,46.8,29.6,17.8,10.7,4.0,-9.3,54,36,10,30.34,29.92,13,4,20,0.00
2013-1-11,32.5,16.6,1.0,19.2,2.0,-14.5,87,54,19,29.99,29.69,17,5,22,0.00
2013-1-12,25.2,3.3,-10.8,-2.4,-12.8,-22.3,75,51,14,30.04,29.96,10,4,14,0.00
2013-1-13,21.4,-0.8,-10.7,-4.5,-11.8,-18.5,78,63,17,31.98,30.03,10,3,14,0.00
2013-1-14,25.2,0.9,-13.5,-3.3,-12.2,-19.5,77,57,22,32.01,31.91,10,3,12,0.00
2013-1-15,28.6,11.9,-3.6,10.6,-3.5,-19.0,72,50,32,32.20,31.98,9,3,16,0.00
2013-1-16,48.2,27.0,14.7,17.5,12.4,7.3,77,57,28,32.38,32.19,9,4,12,0.00
2013-1-17,47.5,27.7,11.8,14.9,9.1,3.3,76,49,21,32.45,32.33,10,3,11,0.00
2013-1-18,50.4,35.8,25.2,4.0,-3.4,-11.2,38,20,10,32.32,32.24,15,6,32,0.00
2013-1-19,52.2,34.2,20.5,5.2,-1.0,-10.1,45,25,10,32.34,32.23,13,5,19,0.00
2013-1-20,50.9,32.9,20.1,7.7,-1.5,-12.7,45,26,10,32.31,32.24,11,4,17,0.00
2013-1-21,47.7,33.4,20.8,6.5,1.0,-17.1,48,27,10,32.29,32.21,17,7,27,0.00
2013-1-22,54.0,36.7,25.5,-1.5,-12.4,-17.9,28,12,10,32.33,32.19,23,7,24,0.00
2013-1-23,63.5,41.7,28.8,8.7,-4.5,-17.1,35,15,10,32.38,32.30,12,5,17,0.00
2013-1-24,55.9,40.2,26.1,23.3,10.5,-13.7,55,33,10,32.32,32.18,19,6,32,0.00
2013-1-25,53.4,38.4,29.5,25.1,22.7,19.2,74,55,32,32.29,32.21,14,4,21,0.00
2013-1-26,53.4,36.7,29.7,31.2,23.7,17.6,92,62,24,32.20,29.14,10,2,14,0.00
2013-1-27,51.3,36.0,26.1,31.2,21.0,13.2,91,59,25,31.99,31.91,19,4,21,0.17
2013-1-28,38.5,27.2,16.0,27.0,19.3,10.9,89,73,49,31.96,31.79,8,3,14,0.00
2013-1-29,16.9,10.7,0.3,11.6,-2.2,-10.8,80,57,34,31.95,31.78,10,3,16,0.00
2013-1-30,29.3,17.9,0.0,11.1,3.2,-10.5,66,52,36,31.99,31.87,15,9,30,0.01
2013-1-31,38.7,28.2,18.5,13.0,9.2,6.2,65,46,28,32.21,31.99,16,8,31,0.00
2013-2-1,40.5,29.3,18.5,17.3,11.5,7.4,68,48,27,32.24,32.16,19,7,23,0.00
2013-2-2,49.8,32.7,18.5,10.1,2.1,-8.3,53,32,10,32.37,32.23,15,6,27,0.00
2013-2-3,53.2,34.8,21.6,4.0,-3.7,-15.7,46,21,10,32.33,32.09,12,5,22,0.00
2013-2-4,47.1,33.6,23.7,10.6,-0.2,-9.8,41,25,10,34.39,32.06,14,6,24,0.00
2013-2-5,57.4,38.5,25.9,18.6,14.0,7.6,66,39,17,32.16,29.12,14,6,23,0.00
2013-2-6,52.7,33.6,23.4,26.1,17.0,12.1,87,55,21,32.15,32.01,10,3,16,0.00
2013-2-7,47.3,27.6,9.9,20.0,-0.2,-14.8,84,38,10,32.21,32.14,27,5,34,0.00
2013-2-8,46.8,30.7,16.9,20.2,10.6,3.0,65,44,24,32.18,31.91,14,6,21,0.00
2013-2-9,43.9,26.7,13.3,20.1,12.5,0.6,84,58,19,31.92,31.69,13,4,20,0.00
2013-2-10,26.6,17.8,10.8,14.4,6.6,-2.5,85,63,41,32.02,31.70,13,5,24,0.00
2013-2-11,29.1,11.5,0.5,11.2,4.8,-4.6,84,75,39,32.05,31.98,9,2,13,0.08
2013-2-12,46.9,19.3,0.7,5.3,-1.1,-14.0,79,45,10,32.08,32.04,10,4,14,0.02
2013-2-13,41.2,27.6,18.1,15.1,8.4,4.0,57,44,27,32.10,32.06,17,8,29,0.00
2013-2-14,38.8,18.1,8.4,13.8,8.0,4.7,87,68,28,32.22,32.08,10,3,16,0.00
2013-2-15,34.0,22.3,12.7,12.3,6.2,0.5,86,51,28,32.28,32.18,16,6,24,0.00
2013-2-16,46.8,32.9,23.2,12.2,7.9,1.9,50,36,21,32.26,32.13,16,7,27,0.00
2013-2-17,51.1,34.7,21.0,14.0,-2.0,-13.7,66,25,10,32.13,31.83,19,6,25,0.00
2013-2-18,33.6,20.4,7.3,13.7,0.3,-8.3,82,44,19,32.11,31.89,16,6,27,0.00
2013-2-19,50.2,25.6,5.9,10.1,-4.3,-15.8,61,32,10,32.09,31.91,10,4,15,0.00
2013-2-20,42.1,23.7,16.2,19.1,10.3,3.1,88,59,25,31.91,31.73,15,4,21,0.00
2013-2-21,34.2,19.1,8.2,17.8,12.1,4.0,87,75,45,31.92,31.74,10,3,15,0.11
2013-2-22,38.5,18.2,7.5,13.9,5.8,-1.8,82,59,28,31.97,31.90,12,5,24,0.00
2013-2-23,45.0,27.6,13.6,17.2,9.6,-2.3,78,48,27,31.94,31.77,21,7,28,0.01
2013-2-24,23.2,16.7,2.3,18.7,11.5,-2.2,87,80,59,32.08,31.81,21,6,23,0.00
2013-2-25,48.0,21.3,-2.0,13.7,2.5,-7.0,84,49,10,32.08,31.92,11,4,16,0.00
2013-2-26,29.3,17.9,4.1,17.2,9.7,-0.9,86,71,44,32.12,31.88,8,3,11,0.00
2013-2-27,36.7,18.8,4.1,4.4,-1.2,-6.1,79,45,19,32.22,32.13,14,5,22,0.09
2013-2-28,40.3,23.2,9.3,13.4,3.4,-5.8,68,44,19,32.27,32.19,17,7,25,0.00
2013-3-1,47.7,31.2,14.9,18.7,13.9,5.3,69,50,28,32.38,32.26,12,6,24,0.00
2013-3-2,52.2,36.9,26.2,21.5,18.0,14.8,66,48,26,32.39,32.24,15,6,22,0.00
2013-3-3,52.5,39.1,25.7,22.5,17.2,12.0,70,44,21,32.24,31.96,14,5,24,0.00
2013-3-4,45.9,29.0,11.8,26.0,15.4,-4.3,85,59,28,32.20,31.88,14,5,20,0.00
2013-3-5,52.7,30.2,8.1,10.6,-2.3,-14.8,55,30,10,32.24,32.19,12,4,20,0.01
2013-3-6,57.9,37.6,19.2,11.2,5.6,-3.2,53,29,10,32.23,32.05,13,4,18,0.00
2013-3-7,57.7,40.8,27.1,17.0,7.3,-4.9,59,30,10,32.15,32.08,13,5,21,0.00
2013-3-8,54.5,35.5,23.4,27.0,16.8,9.0,82,50,18,32.14,31.86,13,3,17,0.00
2013-3-9,29.8,24.9,15.8,25.3,21.3,12.1,91,86,80,32.11,31.82,14,4,16,0.00
2013-3-10,46.2,24.6,2.5,17.5,9.2,-1.9,86,56,24,32.18,32.10,19,5,25,0.13
2013-3-11,50.4,33.7,22.5,22.1,15.3,7.1,72,48,25,32.17,32.08,16,7,24,0.00
2013-3-12,49.1,33.5,21.2,24.2,19.0,15.4,91,59,30,32.31,32.15,21,6,24,0.00
2013-3-13,57.4,41.1,29.7,23.5,18.8,15.0,62,43,20,32.40,32.30,21,5,21,0.00
2013-3-14,60.8,43.3,33.3,22.0,15.7,1.9,59,36,10,32.39,32.36,14,5,16,0.00
2013-3-15,33.6,33.6,33.6,21.6,21.3,21.2,61,60,60,32.27,32.27,3,2,4,0.00
2013-3-17,33.1,29.7,25.0,26.4,15.9,7.8,82,57,42,31.98,31.84,9,5,17,0.00
2013-3-18,39.2,27.9,19.8,18.2,10.5,2.8,67,48,31,32.08,31.97,12,5,27,0.00
2013-3-19,45.7,31.8,18.1,18.7,-2.0,-18.7,72,28,10,32.32,32.08,15,6,26,0.00
2013-3-20,57.7,34.2,12.7,20.3,7.6,-5.5,54,36,12,32.32,31.99,18,6,24,0.00
2013-3-21,53.1,34.8,25.5,27.8,16.6,5.8,80,49,25,31.99,31.81,20,6,30,0.00
2013-3-22,46.6,28.9,16.3,19.7,5.3,-12.3,87,46,10,31.96,31.80,18,6,25,0.00
2013-3-23,19.0,11.4,2.7,15.9,6.2,-2.3,87,79,67,32.11,31.91,11,6,21,0.00
2013-3-24,26.2,9.4,-5.3,5.5,-2.8,-10.3,82,60,31,32.13,32.03,13,4,21,0.00
2013-3-25,-1.3,-2.1,-2.7,-7.7,-8.3,-8.9,75,74,72,32.13,32.12,4,3,4,0.00
2013-3-31,61.5,43.1,30.2,18.0,10.5,-1.5,60,32,10,30.00,29.91,13,4,17,0.02
2013-4-1,59.9,37.7,23.7,31.0,22.6,10.0,92,60,14,30.00,29.85,15,4,21,0.00
2013-4-2,43.3,32.2,28.4,34.8,29.0,25.9,92,88,67,29.93,29.87,11,3,14,0.15
2013-4-3,56.1,37.5,20.1,32.1,21.3,4.4,91,59,15,30.03,29.91,9,3,13,0.22
2013-4-4,62.8,44.2,27.7,23.6,18.4,4.5,74,41,10,30.03,29.96,13,4,18,0.00
2013-4-5,64.8,45.4,31.5,31.8,20.1,11.0,86,43,13,29.97,29.76,17,5,21,0.05
2013-4-6,59.2,42.8,31.5,27.2,20.1,14.0,78,43,18,29.87,29.81,16,4,23,0.01
2013-4-7,54.5,40.5,29.8,32.3,22.1,16.2,75,50,23,29.83,29.71,14,6,26,0.00
2013-4-8,59.7,41.7,26.1,30.2,19.9,1.0,91,50,10,29.74,29.47,17,4,25,0.00
2013-4-9,25.7,13.2,1.8,22.9,7.4,-2.9,89,77,57,29.80,29.63,14,3,20,0.00
2013-4-10,37.8,18.1,-3.3,20.1,6.4,-8.2,82,63,31,29.78,29.69,13,5,25,0.07
2013-4-11,29.7,26.5,22.1,15.1,11.9,7.2,60,53,51,29.71,29.64,9,5,18,0.00
2013-4-12,51.4,36.3,25.0,27.1,18.5,3.2,84,56,15,29.85,29.76,16,4,18,0.00
2013-4-13,59.9,42.0,25.5,30.8,15.4,6.2,83,39,15,29.85,29.51,24,8,31,0.01
2013-4-14,40.5,32.6,26.6,30.8,17.2,7.3,88,56,28,29.66,29.50,19,4,27,0.08
2013-4-15,29.1,25.1,20.8,22.9,19.9,12.7,89,81,54,29.77,29.59,7,3,12,0.00
2013-4-16,44.6,22.1,18.0,25.6,18.2,14.9,91,85,47,29.77,29.69,7,3,11,0.15
2013-4-17,27.1,18.4,7.9,23.5,15.2,3.6,92,87,75,29.85,29.69,10,4,14,0.00
2013-4-18,33.8,17.8,-0.9,13.2,2.9,-5.5,83,55,31,29.94,29.79,13,5,27,0.11
2013-4-19,45.1,31.1,18.9,20.3,12.6,4.6,74,47,28,32.14,29.86,14,6,21,0.00
2013-4-20,47.8,33.4,22.5,28.5,22.0,16.5,85,65,33,29.93,29.81,10,4,15,0.00
2013-4-21,54.9,39.1,25.3,25.4,19.6,13.7,84,49,23,29.96,29.90,13,5,24,0.00
2013-4-22,49.1,30.8,14.2,34.0,22.5,10.4,88,73,37,29.96,29.83,16,5,21,0.02
2013-4-23,36.0,20.6,10.2,20.8,12.2,5.2,85,71,41,29.95,29.85,10,3,14,0.06
2013-4-24,15.6,10.5,7.0,5.7,3.7,1.3,80,73,62,29.95,29.91,4,2,8,0.00
2013-4-25,57.9,43.5,31.1,24.5,18.2,3.4,71,42,13,29.96,29.87,11,4,14,0.00
2013-4-26,57.7,41.1,25.9,22.9,18.2,10.4,77,46,18,30.15,29.96,12,4,17,0.00
2013-4-27,64.0,44.7,26.8,23.3,15.8,3.9,76,40,10,31.61,30.03,14,5,21,0.00
2013-4-28,69.8,50.7,31.6,26.0,17.8,9.4,60,33,10,30.05,29.91,14,6,21,0.00
2013-4-29,69.8,52.9,32.7,29.7,20.3,10.1,76,34,11,29.97,29.74,15,6,26,0.00
2013-4-30,68.7,51.9,37.9,35.9,24.7,15.2,72,38,14,29.80,29.72,15,6,24,0.00
2013-5-1,29.5,20.8,12.4,25.8,17.1,8.0,89,85,79,30.22,29.96,11,5,14,0.00
2013-5-2,33.4,16.5,2.5,21.6,11.0,-1.6,86,79,50,30.29,30.17,7,2,10,0.14
2013-5-3,56.5,39.0,21.4,24.0,16.7,2.1,79,44,14,30.17,29.97,13,5,18,0.00
2013-5-4,52.3,35.2,25.9,26.9,21.7,18.8,81,61,33,30.01,29.96,11,4,17,0.00
2013-5-5,57.0,42.5,31.5,31.1,26.4,23.2,89,55,29,30.06,29.96,11,4,14,0.01
2013-5-6,59.2,40.4,31.6,36.2,30.1,24.9,91,70,31,30.01,29.91,13,3,19,0.30
2013-5-7,56.8,40.0,32.7,34.1,31.5,20.6,92,74,26,30.00,29.89,9,4,17,0.01
2013-5-8,46.4,35.1,29.7,40.4,31.1,26.3,94,85,69,30.00,29.94,7,2,8,0.31
2013-5-9,48.6,34.2,27.9,36.5,30.8,26.4,95,88,63,30.13,30.00,7,1,8,0.98
2013-5-10,66.7,38.7,25.0,40.4,30.6,22.6,94,76,29,30.23,30.09,8,2,14,0.37
2013-5-11,64.9,44.2,29.1,35.3,30.1,21.1,92,63,26,30.27,30.19,11,2,17,0.01
2013-5-12,68.9,51.4,35.4,37.9,29.2,22.9,77,48,18,30.21,30.15,13,4,15,0.00
2013-5-13,75.0,56.4,39.2,40.7,32.5,25.4,67,44,17,30.21,30.15,11,5,15,0.00
2013-5-14,73.8,54.7,39.0,42.9,33.3,26.5,88,49,18,30.15,30.06,12,4,16,0.13
2013-5-15,67.8,57.0,38.5,45.1,38.4,30.6,87,53,27,30.06,30.00,7,3,11,0.13
2013-5-16,70.2,50.2,43.5,34.8,33.3,25.4,67,55,19,29.99,29.95,9,3,12,0.00
2013-5-17,75.6,56.5,35.4,37.1,22.9,8.5,80,36,10,30.00,29.91,13,4,22,0.00
2013-5-18,62.2,47.2,35.1,35.7,27.1,19.2,67,48,20,29.97,29.88,10,3,17,0.00
2013-5-19,58.1,46.2,34.7,34.1,25.6,19.2,70,46,24,29.90,29.83,15,6,27,0.00
2013-5-20,59.7,45.2,32.9,36.7,28.7,23.0,90,55,27,30.00,29.86,13,5,24,0.05
2013-5-21,60.6,41.0,29.7,30.3,26.3,18.8,90,61,20,29.99,29.91,12,3,15,0.00
2013-5-22,70.2,50.4,32.2,38.8,29.2,21.7,81,50,17,30.06,29.92,11,4,19,0.00
2013-5-23,73.4,53.1,35.1,42.4,35.4,17.5,87,57,14,30.06,29.95,12,5,17,0.00
2013-5-24,76.5,58.2,42.1,38.4,25.8,8.3,77,38,10,30.06,29.99,14,5,22,0.00
2013-5-25,78.6,58.1,35.2,29.3,17.9,8.5,61,27,10,30.07,29.98,13,4,21,0.00
2013-5-26,78.1,58.9,42.3,31.6,21.7,10.5,47,28,10,30.04,29.96,14,4,17,0.00
2013-5-27,73.8,56.1,35.4,28.4,17.8,7.5,53,28,10,30.00,29.87,14,4,19,0.00
2013-5-28,67.1,50.2,34.7,26.6,20.2,6.8,59,35,10,29.93,29.75,10,3,16,0.00
2013-5-29,61.9,47.2,36.1,39.1,28.4,23.5,82,50,25,29.79,29.70,14,5,27,0.01
2013-5-30,55.4,44.5,37.0,35.5,28.0,20.0,85,54,26,29.94,29.73,16,7,24,0.04
2013-5-31,60.1,47.5,32.7,31.5,19.6,5.7,88,38,13,30.03,29.88,20,8,29,0.00
2013-6-1,63.0,50.8,35.8,35.2,24.2,14.3,52,36,22,30.12,30.03,11,6,17,0.00
2013-6-2,80.1,65.3,48.6,34.1,24.5,15.2,39,24,10,29.92,29.84,11,5,19,2.06
2013-6-3,79.5,61.5,44.1,30.5,21.7,12.7,49,25,10,29.96,29.85,16,5,22,0.00
2013-6-4,64.0,44.2,36.1,46.0,29.7,25.5,66,57,47,29.98,29.93,8,3,12,0.00
2013-6-5,46.0,43.3,38.3,42.4,40.7,35.7,92,91,86,29.96,29.94,7,3,8,0.05
2013-6-6,67.1,38.7,34.2,37.4,33.7,32.0,94,84,31,29.95,29.92,10,3,15,0.00
2013-6-7,72.1,57.9,46.8,37.4,31.4,25.6,55,39,21,29.89,29.81,12,4,17,0.00
2013-6-8,76.6,60.6,45.0,43.7,31.2,17.8,66,37,13,29.93,29.76,14,5,19,0.00
2013-6-9,84.0,62.9,39.4,34.5,27.3,18.1,78,34,10,31.42,29.91,15,5,22,0.00
2013-6-10,87.8,68.4,46.2,36.2,28.1,18.2,51,27,10,29.95,29.89,13,4,24,0.00
2013-6-11,86.0,68.3,46.4,32.2,22.2,10.8,51,22,10,29.95,29.83,19,7,30,0.00
2013-6-12,88.0,65.9,45.5,30.8,21.8,14.9,44,22,10,30.05,29.94,17,5,21,0.00
2013-6-13,77.0,64.9,55.4,38.1,33.3,24.4,51,33,15,29.99,29.89,15,4,23,0.00
2013-6-14,84.0,66.3,49.5,39.1,31.7,16.7,57,31,10,29.95,29.86,15,5,21,0.00
2013-6-15,78.8,60.1,40.1,45.6,37.4,14.9,69,46,10,29.99,29.91,16,4,99,0.00
2013-6-16,77.9,57.1,42.4,48.1,35.8,26.0,77,49,17,30.08,29.96,9,4,20,0.09
2013-6-17,73.8,56.1,38.8,43.8,36.4,29.7,77,51,22,30.06,29.97,16,4,22,0.02
2013-6-18,76.1,57.4,45.7,42.5,38.6,30.8,70,52,20,30.02,29.85,11,4,17,0.00
2013-6-19,86.5,64.0,42.6,41.5,24.2,2.3,73,31,10,29.89,29.74,16,5,24,0.00
2013-6-20,75.4,54.6,40.8,27.5,18.6,9.0,40,26,10,29.89,29.80,8,3,14,0.00
2013-6-21,86.4,65.4,40.8,27.5,19.6,10.0,48,22,10,29.89,29.80,14,5,22,0.00
2013-6-22,80.1,62.5,41.4,35.3,19.9,10.0,54,23,10,29.89,29.78,15,4,27,0.00
2013-6-23,81.0,59.3,38.5,44.8,29.0,15.1,89,38,10,29.92,29.81,12,4,19,0.06
2013-6-24,81.1,61.4,40.1,46.5,28.9,9.9,93,42,10,29.88,29.77,14,4,23,0.01
2013-6-25,82.8,64.7,45.9,32.4,26.0,17.3,47,26,11,30.00,29.82,13,4,15,0.00
2013-6-26,91.8,67.9,44.1,36.7,29.8,21.3,59,30,10,30.08,29.99,10,4,17,0.00
2013-6-27,90.0,71.8,49.6,38.1,31.1,21.3,47,26,10,30.18,30.06,12,4,21,0.00
2013-6-28,90.1,71.9,48.0,48.5,37.6,20.3,88,33,10,30.20,30.08,11,5,17,0.39
2013-6-29,79.7,58.6,46.4,56.7,48.2,43.3,96,71,34,30.20,30.05,6,2,11,0.22
2013-6-30,74.8,59.2,47.8,53.1,47.6,43.1,86,68,40,30.10,30.02,11,3,17,0.02
2013-7-1,63.5,53.5,41.0,50.9,46.7,36.8,91,79,51,30.13,30.08,8,3,11,0.08
2013-7-2,72.3,55.7,43.2,53.4,46.0,40.5,92,74,36,30.12,29.92,11,3,16,0.25
2013-7-3,55.2,52.0,49.3,49.8,46.1,43.0,87,81,68,29.86,29.81,6,3,11,0.38
2013-7-4,79.0,60.7,45.3,53.5,44.4,38.0,87,59,27,29.84,29.78,10,3,21,0.04
2013-7-5,79.7,63.3,50.0,51.8,46.0,41.0,89,57,29,29.81,29.71,12,4,19,0.06
2013-7-6,81.0,65.5,54.0,48.9,46.3,40.8,82,53,25,29.86,29.77,12,4,17,0.00
2013-7-7,79.7,62.7,50.7,54.1,47.9,40.9,94,63,28,29.93,29.83,13,4,18,0.35
2013-7-8,81.5,66.3,47.1,51.9,45.0,32.4,93,54,19,29.96,29.89,9,3,21,0.07
2013-7-9,83.3,64.6,50.2,52.8,43.3,30.6,75,51,18,30.01,29.95,12,3,17,0.02
2013-7-10,83.3,64.5,48.0,55.0,44.4,39.0,80,53,22,30.00,29.89,12,4,19,0.02
2013-7-11,87.3,64.5,51.6,57.4,48.4,34.0,86,63,15,29.93,29.77,11,4,17,0.19
2013-7-12,82.4,62.9,50.4,57.5,50.8,46.2,91,69,31,29.89,29.82,11,4,16,0.08
2013-7-13,81.7,61.5,51.4,58.8,51.7,46.5,95,74,30,29.95,29.86,8,2,13,0.48
2013-7-14,75.4,59.3,48.6,56.6,51.7,45.8,95,78,42,29.97,29.91,11,3,15,0.07
2013-7-15,68.7,58.6,51.6,56.4,53.0,50.0,95,82,61,29.96,29.88,10,2,16,0.07
2013-7-16,76.5,61.4,44.4,50.8,45.8,40.8,89,60,33,29.99,29.88,11,4,17,0.00
2013-7-17,82.8,65.1,50.0,52.5,46.9,42.4,76,54,28,29.99,29.92,11,4,17,0.00
2013-7-18,80.1,63.0,53.1,56.1,48.9,43.7,82,62,33,29.98,29.90,12,4,19,0.09
2013-7-19,74.5,61.6,50.4,56.1,50.4,45.7,88,68,44,29.96,29.89,12,3,15,0.05
2013-7-20,82.4,65.3,48.7,50.2,44.8,29.3,82,53,17,29.90,29.79,10,4,15,0.00
2013-7-21,86.4,67.9,50.2,48.9,38.2,19.3,85,44,10,29.84,29.78,20,4,21,0.00
2013-7-22,85.6,64.2,49.5,44.6,36.4,19.7,70,44,10,29.87,29.83,12,3,18,0.00
2013-7-23,87.6,67.1,49.1,43.7,37.3,20.2,59,38,10,30.03,29.94,11,3,11,0.00
2013-7-24,81.9,63.8,54.3,56.8,45.0,37.5,80,52,23,30.05,29.97,18,4,20,0.19
2013-7-25,73.4,58.2,46.8,51.9,47.7,43.1,91,71,36,30.08,29.94,17,3,17,0.24
2013-7-26,75.7,59.9,42.6,50.0,45.0,41.2,95,62,32,30.08,30.03,10,3,14,0.00
2013-7-27,80.2,61.5,49.8,53.0,47.2,37.9,91,63,23,30.05,29.90,10,4,14,0.09
2013-7-28,73.2,57.6,48.9,53.8,49.7,46.4,92,76,44,29.92,29.82,14,4,16,0.13
2013-7-29,74.5,57.4,49.5,52.9,47.1,42.7,91,71,35,30.03,29.85,10,3,14,0.06
2013-7-30,78.8,61.9,43.5,48.7,42.2,36.0,92,54,23,30.10,30.02,12,4,19,0.00
2013-7-31,81.7,64.3,47.3,46.5,41.2,35.5,74,47,19,30.13,30.03,10,3,13,0.00
2013-8-1,78.6,59.6,49.1,53.2,46.1,42.4,82,63,30,30.06,29.85,7,3,11,0.19
2013-8-2,86.2,68.2,51.3,45.1,41.2,29.2,69,41,15,29.92,29.80,10,5,17,0.00
2013-8-3,82.8,65.1,49.8,50.9,44.9,38.9,89,52,23,30.04,29.90,11,4,16,0.00
2013-8-4,83.7,61.6,45.0,53.3,44.9,35.6,89,60,19,30.00,29.91,11,4,18,0.01
2013-8-5,80.2,60.8,48.9,53.5,44.9,33.5,84,60,19,29.96,29.88,14,4,17,0.08
2013-8-6,81.7,59.1,48.6,47.4,42.1,30.5,82,60,16,29.91,29.83,8,3,14,0.00
2013-8-7,70.5,52.1,45.9,50.7,44.9,40.7,90,77,38,29.92,29.83,6,2,11,0.32
2013-8-8,70.3,52.2,42.8,49.0,42.9,38.2,94,73,41,29.97,29.81,13,3,14,0.70
2013-8-9,69.8,52.1,40.3,48.9,42.6,37.9,94,74,34,29.99,29.91,11,3,14,0.13
2013-8-10,81.5,60.2,41.4,47.2,39.4,21.3,87,54,11,29.99,29.23,12,4,18,0.01
2013-8-11,74.1,57.4,45.1,48.9,43.6,39.5,90,63,30,29.98,29.93,9,3,17,0.11
2013-8-12,75.6,55.6,44.1,50.9,44.2,38.2,93,69,29,30.02,29.91,10,3,14,0.39
2013-8-13,68.9,53.4,43.0,50.4,44.7,40.1,95,74,48,30.01,29.93,11,3,16,0.14
2013-8-14,77.4,58.1,40.6,46.8,37.1,21.2,87,53,15,29.97,29.91,13,4,19,0.00
2013-8-15,80.8,60.7,40.6,42.8,34.5,19.8,79,46,11,29.99,29.91,12,4,21,0.00
2013-8-16,83.1,63.6,44.8,43.5,33.9,19.2,74,41,10,29.99,29.94,9,3,14,0.00
2013-8-17,72.9,53.5,47.7,41.5,36.0,33.8,59,52,32,29.99,29.96,6,2,8,0.00
2013-8-18,81.9,64.4,50.0,46.3,41.6,31.2,72,48,17,29.99,29.93,10,4,15,0.00
2013-8-19,83.7,63.6,45.1,48.0,40.8,32.8,78,49,18,29.98,29.90,9,4,17,0.00
2013-8-20,84.6,63.6,48.4,43.0,37.9,24.0,72,44,14,29.95,29.85,5,2,8,0.00
2013-8-21,83.1,64.4,51.8,54.5,43.9,36.2,70,50,20,29.96,29.91,8,2,13,0.04
2013-8-22,79.0,59.7,48.7,52.1,47.4,41.8,94,66,32,30.01,29.92,10,3,13,0.30
2013-8-23,81.9,61.9,50.5,56.1,49.5,43.6,95,68,28,29.99,29.83,10,3,15,0.05
2013-8-24,78.6,59.5,45.3,52.5,46.9,41.7,89,66,31,29.94,29.86,9,2,14,0.02
2013-8-25,80.8,62.8,49.5,55.8,48.2,43.1,89,63,28,29.98,29.91,8,3,13,0.02
2013-8-26,82.9,64.3,54.0,61.5,50.8,44.3,92,66,28,29.98,29.93,12,4,16,0.41
2013-8-27,81.0,63.5,48.6,56.6,51.0,47.2,96,68,35,29.98,29.91,12,3,16,0.01
2013-8-28,84.6,66.2,48.9,53.9,46.6,36.8,87,54,20,29.99,29.91,10,3,17,0.00
2013-8-29,85.5,63.6,50.5,53.9,46.5,40.5,80,58,23,30.05,29.96,13,3,20,0.05
2013-8-30,82.0,64.2,52.5,54.0,47.9,41.5,80,59,27,30.03,29.95,8,3,13,0.01
2013-8-31,58.5,57.1,54.7,49.5,48.5,47.4,82,73,68,29.98,29.96,8,4,11,0.04
2013-9-1,63.5,55.5,52.0,55.5,50.4,46.8,88,83,72,29.95,29.92,4,2,8,0.14
2013-9-2,81.3,61.8,0.0,54.3,49.1,45.1,82,65,30,29.93,29.89,8,3,12,0.01
2013-9-3,70.7,57.3,0.0,53.4,49.9,45.3,91,72,48,30.02,29.90,6,2,11,0.13
2013-9-4,82.9,59.6,51.8,56.5,50.3,46.1,95,75,31,30.03,29.95,12,3,16,0.70
2013-9-5,87.8,65.0,50.4,53.9,45.9,30.9,86,57,14,30.02,29.95,9,3,13,0.00
2013-9-6,85.8,65.6,49.1,50.4,43.6,35.4,77,50,18,29.99,29.91,12,4,16,0.00
2013-9-7,81.7,63.6,48.6,48.8,43.4,36.5,80,52,22,29.96,29.87,14,3,17,0.00
2013-9-8,84.2,63.0,49.5,49.0,43.4,38.3,73,53,21,29.90,29.77,7,3,13,0.00
2013-9-9,80.8,58.6,45.3,54.2,46.8,41.1,94,68,31,29.82,29.72,10,3,14,0.43
2013-9-10,58.6,53.2,50.0,54.4,51.1,48.3,97,93,76,29.92,29.81,5,2,9,0.93
2013-9-11,63.3,54.4,51.6,55.1,52.3,51.0,99,93,70,31.23,29.88,8,2,10,0.33
2013-9-12,68.9,55.3,51.8,55.5,52.4,51.2,99,91,59,29.97,29.89,10,2,16,0.59
2013-9-13,67.5,55.0,48.0,54.5,49.3,44.6,99,83,53,29.89,29.73,8,2,11,0.28
2013-9-14,72.0,55.4,47.3,49.6,45.4,42.1,88,71,39,29.79,29.72,10,4,15,0.00
2013-9-15,62.1,49.7,46.0,55.1,47.1,45.2,98,91,69,29.99,29.80,7,2,11,0.84
2013-9-16,73.2,55.2,44.2,50.7,45.0,39.3,98,72,35,29.98,29.87,11,4,17,0.01
2013-9-17,76.5,56.8,41.0,45.8,40.3,33.2,86,60,22,29.92,29.75,9,3,13,0.00
2013-9-18,75.9,56.2,44.8,46.5,40.9,32.7,84,60,24,29.80,29.72,16,4,27,0.01
2013-9-19,59.7,49.5,39.6,45.6,40.4,34.0,92,72,42,29.92,29.78,10,4,17,0.05
2013-9-20,69.6,52.3,37.4,45.2,38.3,25.0,92,64,21,29.92,29.84,11,4,14,0.00
2013-9-21,76.5,55.6,38.3,43.6,35.9,30.2,83,53,19,29.87,29.73,9,3,15,0.00
2013-9-22,70.5,51.2,41.2,45.8,39.4,33.3,89,66,34,29.73,29.48,7,3,12,0.11
2013-9-23,55.2,44.1,39.4,37.5,30.5,23.6,80,60,35,30.24,29.40,21,6,30,0.02
2013-9-24,73.8,53.4,35.1,29.5,20.9,8.6,58,33,10,30.27,30.16,11,4,16,0.00
2013-9-25,64.9,59.3,55.2,28.1,25.8,19.7,35,28,18,29.92,29.88,15,6,17,0.00
2013-9-26,73.8,55.7,41.4,39.5,24.6,8.3,75,35,11,30.00,29.91,16,5,21,0.00
2013-9-27,65.5,46.1,32.4,40.0,30.1,18.8,79,54,33,30.10,29.93,12,5,19,0.01
2013-9-28,67.1,45.2,32.5,24.1,17.2,3.0,59,36,14,30.28,30.08,15,6,21,0.01
2013-9-29,73.0,51.8,30.4,25.9,18.2,10.4,65,30,10,30.27,30.10,19,5,23,0.00
2013-9-30,79.2,59.0,42.6,36.5,27.2,17.4,53,31,17,30.18,30.08,17,5,21,0.00
2013-10-1,50.9,42.6,37.2,36.2,28.5,24.2,64,57,51,30.24,30.17,3,2,5,0.00
2013-10-2,72.1,51.4,33.6,33.1,28.5,11.6,73,47,10,30.19,30.11,11,4,17,0.00
2013-10-3,71.2,50.6,36.3,40.1,30.0,11.7,86,52,11,30.11,29.92,12,5,19,0.00
2013-10-4,47.8,36.9,26.4,39.6,21.2,7.5,92,57,27,30.19,29.89,13,6,22,0.05
2013-10-5,55.9,38.3,26.2,15.2,4.1,-8.6,50,28,10,30.29,30.13,14,6,21,0.00
2013-10-6,68.7,48.6,30.7,29.6,19.0,-5.4,62,33,16,30.36,30.28,13,5,17,0.00
2013-10-7,76.3,51.2,30.6,24.2,17.6,8.3,60,33,10,30.33,30.19,11,4,14,0.00
2013-10-8,73.8,53.5,37.4,25.6,18.5,7.2,54,30,10,30.19,30.00,15,4,17,0.00
2013-10-9,48.9,41.6,0.0,36.9,34.7,22.2,83,70,63,29.94,29.91,5,2,7,0.00
2013-10-10,58.5,42.3,33.8,36.2,30.4,22.1,88,64,40,29.93,29.60,14,4,24,0.08
2013-10-11,53.1,41.1,32.2,28.6,24.0,21.4,66,51,33,29.98,29.61,22,6,24,0.00
2013-10-12,59.4,39.8,24.3,34.0,23.4,15.6,85,57,18,30.03,29.95,12,4,14,0.00
2013-10-13,64.8,46.6,32.2,36.4,28.6,22.9,84,54,25,31.54,29.89,11,4,18,0.00
2013-10-14,50.7,39.7,30.7,34.3,27.6,21.6,88,65,34,30.00,29.79,13,4,20,0.06
2013-10-15,31.3,27.4,24.8,27.9,24.0,21.2,93,87,76,31.51,29.99,8,4,11,0.00
2013-10-16,33.3,31.0,22.3,20.8,16.0,13.4,91,54,46,29.95,29.93,8,4,13,0.02
2013-10-17,53.2,37.1,26.4,25.2,16.1,8.1,85,47,18,29.96,29.87,12,4,17,0.00
2013-10-18,44.2,32.1,23.0,26.2,17.0,8.3,90,58,27,30.00,29.88,18,4,26,0.07
2013-10-19,57.7,37.9,26.4,19.5,15.2,9.0,55,40,19,30.00,29.88,14,5,23,0.00
2013-10-20,51.4,37.9,28.2,29.7,21.7,15.4,91,55,29,29.97,29.84,14,4,21,0.00
2013-10-21,55.2,35.8,19.4,24.4,18.1,11.9,89,55,21,30.07,29.96,12,4,22,0.04
2013-10-22,65.1,45.1,30.2,26.5,21.2,16.9,62,42,17,30.08,30.03,11,4,17,0.00
2013-10-23,65.8,45.1,30.9,26.9,20.6,4.7,69,43,11,30.10,30.03,11,4,17,0.00
2013-10-24,65.5,42.3,27.1,28.6,20.6,6.3,71,48,10,30.11,30.04,12,4,15,0.00
2013-10-25,66.6,45.1,30.0,29.9,23.6,15.6,66,46,16,30.13,30.01,10,3,19,0.00
2013-10-26,61.3,41.0,26.1,28.9,23.4,19.3,81,54,20,30.17,30.06,10,3,13,0.00
2013-10-27,64.0,43.9,29.8,25.1,18.2,8.1,63,40,12,30.07,29.85,10,3,16,0.00
2013-10-28,53.1,34.9,25.0,30.7,24.1,17.8,92,67,35,29.87,29.79,10,3,18,0.00
2013-10-29,55.8,38.5,32.9,28.7,22.7,17.5,74,54,22,30.06,29.81,8,4,14,0.00
2013-10-30,31.5,25.6,20.7,30.0,20.9,15.4,96,83,51,29.90,29.87,5,2,8,0.07
2013-10-31,32.2,30.3,27.9,19.4,17.4,10.8,62,58,48,29.93,29.86,8,2,17,0.00
2013-11-1,43.9,34.0,0.0,22.1,13.5,9.8,66,42,31,30.11,29.90,8,2,17,0.00
2013-11-2,67.1,43.4,26.6,10.4,3.2,-8.6,44,22,10,30.11,29.88,10,2,18,0.00
2013-11-3,61.2,43.8,28.9,25.9,9.0,-7.2,73,28,10,29.88,29.67,12,2,23,0.00
2013-11-4,49.6,30.9,19.9,24.4,16.5,8.6,82,58,21,29.87,29.67,10,2,16,0.00
2013-11-5,29.5,25.9,17.6,21.3,16.7,-1.4,82,68,34,29.86,29.65,9,2,25,0.01
2013-11-6,44.8,31.1,19.4,13.6,9.4,-6.4,53,40,26,30.08,29.84,10,3,26,0.00
2013-11-7,60.3,39.4,21.6,18.1,14.8,11.4,69,41,16,30.09,29.88,7,2,17,0.00
2013-11-8,59.2,47.7,33.8,18.0,10.7,3.8,50,24,11,29.88,29.74,10,3,30,0.00
2013-11-9,64.4,46.5,28.8,16.2,13.4,10.3,51,29,13,30.02,29.93,7,2,16,0.00
2013-11-10,62.4,42.4,29.1,16.0,12.9,6.5,52,34,12,30.05,30.00,7,1,17,0.00
2013-11-11,62.8,40.6,24.6,20.1,13.2,3.9,81,40,10,30.22,30.03,8,2,15,0.00
2013-11-12,56.8,36.2,20.7,23.3,16.2,8.7,85,50,16,30.26,30.14,6,1,11,0.00
2013-11-13,61.9,42.7,27.9,13.7,6.1,-1.3,38,24,10,30.14,29.88,8,2,17,0.00
2013-11-14,56.5,39.1,26.2,21.2,9.5,-4.4,68,34,10,29.89,29.69,7,1,16,0.00
2013-11-15,52.9,36.0,23.2,27.3,13.1,4.1,88,43,16,29.68,29.44,9,2,26,0.00
2013-11-16,49.3,35.5,27.3,26.5,17.2,10.6,87,51,21,29.45,29.33,8,3,25,0.00
2013-11-17,44.6,33.2,24.6,21.6,16.6,13.4,88,53,31,29.87,29.43,8,3,24,0.07
2013-11-18,59.0,33.1,0.0,15.7,9.4,-2.2,54,39,10,29.94,29.86,8,1,23,0.00
2013-11-19,57.2,37.7,24.4,23.5,16.1,8.3,66,44,16,29.90,29.68,11,1,21,0.00
2013-11-20,54.1,38.2,29.1,27.2,20.1,16.3,86,51,24,29.77,29.67,11,2,16,0.00
2013-11-21,30.9,16.6,5.4,27.7,12.7,1.8,90,84,74,30.08,29.75,8,1,15,0.00
2013-11-22,38.5,22.6,9.7,22.0,14.8,5.9,85,73,40,30.15,30.06,8,1,12,0.00
2013-11-23,34.3,25.5,18.3,23.3,18.2,14.6,86,74,54,30.17,29.97,6,1,13,0.00
2013-11-24,42.3,32.5,26.2,28.0,23.8,10.0,90,71,38,29.97,29.74,9,1,17,0.06
2013-11-25,34.7,27.0,15.8,20.9,15.2,6.4,83,62,33,30.03,29.79,11,2,17,0.00
2013-11-26,44.8,26.0,14.7,21.6,13.7,9.7,83,63,29,30.10,30.01,7,1,11,0.00
2013-11-27,57.4,35.0,20.7,20.1,13.6,9.6,70,46,16,32.19,29.91,10,2,19,0.00
2013-11-28,55.9,30.8,23.0,18.7,15.3,7.7,73,56,17,29.97,29.87,9,1,14,7.46
2013-11-29,50.9,37.3,21.6,14.8,13.0,10.4,65,39,21,29.96,29.89,11,2,17,7.46
2013-11-30,53.4,34.6,21.7,12.2,5.4,-5.2,56,33,10,29.96,29.89,10,2,21,0.00
2013-12-1,50.2,35.1,21.6,22.0,12.6,7.5,56,41,23,29.93,29.70,13,3,32,0.00
2013-12-2,51.1,38.8,32.4,22.5,19.4,17.3,60,46,29,29.73,29.56,14,3,33,0.00
2013-12-3,38.5,29.8,8.1,28.1,20.1,3.8,88,68,49,29.56,29.37,10,1,20,0.00
2013-12-4,8.1,-1.9,-16.2,4.1,-7.0,-21.8,83,78,72,29.56,29.33,7,1,12,0.00
2013-12-5,30.2,0.6,-15.0,7.2,-8.6,-20.7,82,68,28,29.58,29.46,6,1,11,0.00
2013-12-6,26.6,-1.7,-18.9,3.3,-10.9,-24.7,81,66,31,29.68,29.56,8,1,14,0.00
2013-12-7,28.2,10.6,-0.9,8.5,1.1,-8.5,79,66,40,29.67,29.40,7,1,14,0.00
2013-12-8,28.2,10.6,-2.6,8.0,-1.5,-11.0,82,60,29,29.57,29.35,9,2,21,0.00
2013-12-9,19.8,6.5,-8.0,-3.6,-10.8,-15.9,68,45,22,29.81,29.55,14,3,28,0.00
2013-12-10,40.5,24.6,12.7,12.6,5.0,-4.0,58,43,27,29.85,29.69,14,3,28,0.01
2013-12-11,43.2,27.4,17.4,5.4,1.4,-8.6,55,35,12,30.02,29.84,9,2,16,0.00
2013-12-12,57.6,33.4,18.0,11.0,1.5,-4.9,49,29,10,30.02,29.76,8,1,13,0.00
2013-12-13,46.8,32.7,21.7,13.4,8.8,1.8,67,39,17,29.83,29.64,12,2,17,0.00
2013-12-14,43.7,27.2,16.2,15.6,8.2,2.9,70,46,19,29.95,29.83,12,2,28,0.00
2013-12-15,47.7,35.5,27.5,18.1,14.0,11.0,56,42,25,29.98,29.87,12,4,30,0.00
2013-12-16,52.7,40.4,26.4,15.8,9.7,-0.9,55,29,13,30.03,29.89,13,4,30,0.00
2013-12-17,57.9,35.9,25.3,16.1,12.0,6.6,60,41,13,30.08,29.94,8,1,15,0.00
2013-12-18,60.1,40.9,27.5,16.2,8.7,-0.5,55,30,10,29.94,29.63,11,1,22,0.00
2013-12-19,52.3,34.5,19.4,20.7,16.3,8.6,85,52,18,29.63,29.44,11,1,21,0.00
2013-12-20,43.3,27.2,19.2,24.3,16.4,8.4,85,65,36,29.53,29.43,9,1,15,0.00
2013-12-21,38.1,21.4,7.0,17.6,9.2,1.1,86,61,31,29.58,29.36,7,1,12,0.00
2013-12-22,32.4,19.0,6.8,11.2,5.4,0.6,84,57,32,29.81,29.58,12,2,26,0.00
2013-12-23,38.8,28.2,19.4,17.0,11.6,6.4,71,50,31,29.92,29.79,11,1,27,0.00
2013-12-24,46.8,29.2,11.5,23.4,13.4,-1.9,81,52,30,29.95,29.77,5,0,14,0.00
2013-12-25,41.9,28.0,17.4,7.1,0.3,-7.5,44,31,16,30.00,29.91,2,0,6,0.00
2013-12-26,50.7,32.5,22.3,15.7,9.2,-7.5,65,39,18,30.02,29.94,2,0,11,0.00
2013-12-27,58.1,35.1,20.5,20.1,15.8,11.3,71,49,17,30.02,29.86,2,0,7,0.00
2013-12-28,52.9,32.7,16.5,23.2,17.6,13.1,90,58,23,29.86,29.69,8,0,14,0.00
2013-12-29,36.3,21.1,5.2,19.9,7.5,0.6,87,59,31,29.84,29.68,3,0,15,0.09
2013-12-30,38.8,28.1,19.0,11.5,8.7,4.9,60,44,29,29.91,29.69,7,0,15,0.01
2013-12-31,46.9,33.2,22.6,19.9,15.5,9.1,68,49,31,29.85,29.72,13,2,26,0.00
2014-1-1,39.0,26.9,15.8,23.2,12.4,4.4,85,56,27,29.90,29.70,11,2,26,0.00
2014-1-2,48.0,33.8,23.5,15.4,6.8,-6.4,55,34,12,29.92,29.82,10,2,25,0.00